This is the latest recevied weather packets stored in our database for station/object OK1PHM-12. If no packets are shown the sender has not sent any weather packets the latest 10 day(s).
| Time | Temp. | Humidity | Pressure | Rain* | Wind** | Luminosity | Snow |
|---|---|---|---|---|---|---|---|
| 1777997511 | 25° C | 38% | 1006.2 hPa | - | - | - | - |
| 1777996610 | 25.56° C | 38% | 1006.3 hPa | - | - | - | - |
| 1777995710 | 25.56° C | 38% | 1006.2 hPa | - | - | - | - |
| 1777994809 | 26.11° C | 38% | 1006.1 hPa | - | - | - | - |
| 1777993908 | 26.11° C | 37% | 1006.3 hPa | - | - | - | - |
| 1777993007 | 26.67° C | 36% | 1006.3 hPa | - | - | - | - |
| 1777992106 | 27.22° C | 34% | 1006.3 hPa | - | - | - | - |
| 1777991206 | 27.22° C | 36% | 1006.5 hPa | - | - | - | - |
| 1777989404 | 27.22° C | 37% | 1007 hPa | - | - | - | - |
| 1777988503 | 26.67° C | 37% | 1007.2 hPa | - | - | - | - |
| 1777987602 | 27.78° C | 36% | 1007.4 hPa | - | - | - | - |
| 1777986701 | 26.67° C | 36% | 1007.5 hPa | - | - | - | - |
| 1777985800 | 27.22° C | 36% | 1007.7 hPa | - | - | - | - |
| 1777984900 | 27.78° C | 36% | 1007.8 hPa | - | - | - | - |
| 1777983999 | 26.11° C | 37% | 1008 hPa | - | - | - | - |
| 1777983098 | 26.67° C | 36% | 1008.2 hPa | - | - | - | - |
| 1777982197 | 26.11° C | 37% | 1008.4 hPa | - | - | - | - |
| 1777981296 | 25.56° C | 38% | 1008.4 hPa | - | - | - | - |
| 1777980395 | 25° C | 39% | 1008.5 hPa | - | - | - | - |
| 1777979494 | 25.56° C | 39% | 1008.7 hPa | - | - | - | - |
| 1777978594 | 25.56° C | 39% | 1008.7 hPa | - | - | - | - |
| 1777977693 | 25° C | 38% | 1009 hPa | - | - | - | - |
| 1777976792 | 25° C | 39% | 1009.2 hPa | - | - | - | - |
| 1777975891 | 24.44° C | 39% | 1009.4 hPa | - | - | - | - |
| 1777974990 | 24.44° C | 40% | 1009.4 hPa | - | - | - | - |
* Rain since midnight (hover to see other rain measurements)
** Current wind speed in m/s (hover to see current wind gust speed)